Wind_Speed
27 28 28 29 30 30 31 31 31 29 27 26 26 25 24 23 22 22 22 21 21 20 20 20 20 20 19 18 17 16 15 14 14 14 14 14 13 13 13 14 14 14 14 14
27 27 28 29 29 29 30 31 31 30 28 27 27 26 25 24 23 22 22 22 22 21 21 21 20 18 16 17 16 15 14 14 14 14 15 14 13 13 13 14 14 13 13 13
26 26 27 28 27 27 28 29 30 29 27 26 26 26 25 24 23 23 23 22 23 22 22 21 20 18 17 17 17 16 15 14 14 15 15 15 14 14 13 13 13 13 13 14
28 27 28 28 27 27 27 27 28 27 26 27 26 26 26 25 24 24 23 22 22 22 22 21 20 19 18 17 17 16 15 14 15 15 14 14 14 14 14 14 14 13 14 14
28 28 29 28 28 28 27 26 26 26 26 26 26 26 26 25 24 23 23 23 22 22 22 22 21 20 18 17 17 16 14 13 14 14 14 14 14 14 15 15 15 14 14 14
28 27 27 26 27 27 26 26 26 27 27 26 26 26 25 25 24 24 24 23 23 23 22 22 20 19 18 18 16 15 14 14 14 14 14 15 15 15 16 15 15 15 16 15
27 27 27 25 25 25 26 25 25 26 27 27 26 26 25 25 25 24 24 24 24 24 23 22 21 19 18 17 16 16 15 15 15 16 15 16 16 16 17 16 16 16 17 16
25 26 26 25 24 24 25 24 24 25 25 26 25 25 25 24 25 26 25 24 24 24 22 22 20 19 19 18 17 17 17 17 17 17 17 17 17 17 17 17 17 17 17 18
23 24 23 24 24 24 25 25 25 25 25 25 24 24 24 25 25 25 24 24 23 24 24 21 20 18 18 18 18 18 17 18 18 19 19 19 18 18 18 18 18 18 18 18
23 23 23 22 23 23 24 23 23 23 23 23 23 24 23 24 25 25 24 23 23 23 23 22 21 20 18 18 18 18 18 19 19 20 20 20 19 19 19 19 19 20 19 19
22 22 22 22 21 22 22 22 22 22 22 22 23 23 23 23 24 24 24 23 22 22 21 20 20 19 19 19 19 20 20 20 20 20 20 20 20 20 20 20 20 20 21 21
21 22 22 22 21 21 21 20 20 21 21 22 22 22 22 22 22 23 23 22 21 21 20 19 19 19 20 21 20 20 20 21 21 21 21 21 21 21 22 22 21 21 21 22
20 20 20 21 22 21 21 21 19 19 20 20 20 21 21 22 22 22 22 21 21 22 20 20 19 19 20 20 20 20 21 21 21 21 21 21 22 22 22 22 23 23 23 23
19 19 19 20 20 20 21 21 20 18 19 19 19 20 21 21 21 20 20 20 21 22 21 21 20 20 21 21 21 21 21 22 22 22 22 23 23 23 23 23 23 24 24 24
18 18 18 19 19 19 19 20 20 18 18 18 18 19 20 20 20 20 19 20 21 20 20 20 21 21 21 21 21 21 21 21 22 23 23 23 23 23 23 24 24 25 25 26
17 17 17 18 18 18 18 18 19 19 18 17 18 18 19 19 19 19 19 19 20 20 19 19 19 20 20 20 21 21 21 22 23 23 24 24 24 24 25 25 26 26 27 27
16 16 15 16 16 17 17 17 18 18 17 17 17 17 18 19 19 19 19 19 20 19 19 19 19 20 19 19 20 21 22 23 23 24 24 25 25 25 26 26 26 26 26 26
14 15 15 15 14 15 16 15 16 16 17 17 18 18 18 19 19 19 20 19 19 19 19 20 21 20 20 19 19 19 21 22 22 23 24 24 25 25 25 25 25 25 26 27
13 15 15 15 14 13 14 14 15 16 17 17 18 18 19 19 19 19 19 20 20 20 20 21 21 21 21 21 22 21 22 22 23 23 23 23 24 24 24 24 24 25 25 26
13 14 15 15 15 14 14 14 15 16 16 17 17 17 18 18 18 18 18 19 19 20 20 21 21 22 22 22 22 22 22 22 22 22 22 22 23 23 22 23 23 24 25 26
14 14 14 15 15 14 14 14 14 15 15 16 17 17 18 18 18 18 18 19 19 20 20 20 21 22 22 22 22 22 22 22 22 22 21 22 22 22 23 23 24 24 25 26
15 15 15 15 15 14 15 15 15 14 15 16 17 17 18 18 18 18 18 18 19 20 20 20 20 21 21 22 22 22 22 22 22 22 21 21 23 23 23 24 24 25 25 26
16 15 15 16 16 15 15 15 15 15 15 16 17 17 17 18 18 18 17 18 18 19 20 21 21 21 22 23 23 23 23 23 23 23 23 23 23 24 25 25 26 26 27 27
16 15 15 16 16 16 16 15 15 15 16 16 17 18 18 18 18 18 18 18 18 19 20 21 22 23 24 24 24 24 24 24 24 24 24 24 25 25 26 26 27 27 27 27
15 15 16 16 17 16 16 15 15 15 16 16 17 17 17 17 18 18 18 19 20 20 21 21 22 23 24 24 25 25 24 24 24 24 25 26 26 26 27 27 28 27 27 27
14 14 15 16 16 16 16 15 15 16 16 15 16 17 18 19 19 19 18 18 19 20 20 21 22 23 24 24 24 25 24 25 25 25 25 26 27 27 27 28 29 28 28 28
13 13 14 15 15 15 15 15 16 16 15 15 15 16 17 18 18 18 18 17 17 18 19 20 21 21 22 22 23 24 24 25 25 26 26 26 26 26 26 26 27 27 28 28
Wind_Direction
239 238 239 241 243 246 248 251 254 255 255 255 255 254 256 257 259 258 257 257 258 261 265 268 271 272 274 274 275 275 273 271 273 276 277 278 278 277 274 275 277 278 275 276
241 239 240 241 243 247 249 252 255 256 256 255 253 252 254 256 258 259 258 259 261 265 267 270 274 271 271 280 276 273 274 271 271 272 272 274 275 277 278 276 275 277 275 274
242 241 240 241 243 246 248 250 253 255 254 254 252 251 252 253 254 256 257 258 262 266 267 268 270 271 273 275 278 276 274 273 270 270 270 271 273 273 276 274 273 274 275 274
245 244 243 241 243 245 246 247 249 250 250 251 251 250 250 250 252 254 259 260 261 262 264 265 266 271 273 273 277 275 272 271 268 268 269 269 269 270 272 272 272 273 275 276
245 245 245 244 245 245 245 246 247 246 246 248 248 249 249 250 252 255 258 259 261 263 265 268 269 273 274 276 278 275 272 269 266 265 266 268 270 271 271 272 270 272 274 276
243 244 245 244 244 247 248 248 248 247 247 247 248 249 250 250 253 255 256 257 259 261 263 265 268 270 270 275 274 270 268 267 265 262 263 267 269 269 271 273 270 270 273 276
242 243 244 243 244 247 249 248 249 248 248 249 249 251 252 251 253 255 258 259 258 259 260 261 265 269 265 266 265 265 264 265 265 265 265 269 271 271 272 273 271 272 274 277
242 243 243 244 247 248 249 249 249 249 249 250 250 251 252 251 252 254 256 258 257 256 259 260 264 266 261 259 260 261 262 262 263 265 267 270 272 272 271 273 273 275 277 278
242 244 245 247 249 248 248 249 249 249 249 249 250 252 254 252 252 253 253 256 254 254 256 260 263 264 262 258 259 260 261 261 262 265 268 269 272 272 272 273 275 276 278 280
242 241 242 247 248 247 247 248 246 247 249 250 252 253 253 252 251 251 253 254 252 252 254 256 258 261 262 260 260 262 263 264 265 266 269 269 270 270 271 273 274 274 277 280
241 241 243 247 249 244 245 246 246 248 251 252 252 252 253 252 250 249 251 251 251 254 255 256 257 258 260 260 260 263 263 263 264 267 269 268 266 267 270 272 273 274 275 278
240 243 245 245 246 246 244 245 248 248 250 254 253 251 251 249 248 248 249 249 250 250 253 256 256 256 259 259 260 263 263 263 264 265 266 266 266 267 270 272 273 274 276 278
241 242 245 246 246 246 243 243 246 247 249 251 250 250 249 247 246 246 247 249 250 253 254 254 254 255 259 258 260 261 262 263 262 263 265 267 267 268 270 273 273 275 278 280
242 242 242 243 243 244 246 246 245 248 249 249 251 249 250 249 246 244 245 247 250 250 251 254 256 257 258 260 262 261 261 261 262 262 265 266 267 269 270 272 273 276 278 280
244 241 241 242 245 247 248 247 246 247 248 248 250 251 250 248 245 244 246 248 250 252 254 255 257 258 261 264 264 263 261 260 261 262 264 265 266 268 271 274 275 276 277 279
247 243 243 244 244 244 246 247 245 244 247 249 247 248 246 244 244 244 248 251 252 255 257 258 261 261 264 265 265 264 263 263 263 263 265 266 266 268 272 274 275 277 277 278
244 240 241 244 244 242 242 242 242 242 243 245 244 244 244 243 242 243 248 251 254 257 257 258 262 264 266 268 269 267 267 267 267 265 265 266 267 269 272 274 274 275 277 280
243 240 240 243 244 238 238 241 242 242 241 243 245 247 246 246 246 248 251 254 257 258 259 261 261 263 264 267 271 270 269 269 271 271 268 269 269 270 272 272 273 276 279 281
242 241 241 242 240 238 240 243 242 244 244 244 246 247 247 247 246 250 252 254 257 260 261 263 262 263 267 269 271 272 273 274 273 272 271 270 268 270 272 273 275 278 280 281
246 246 244 242 242 240 241 244 245 245 246 245 245 246 247 249 252 254 254 257 259 261 261 262 262 262 265 269 272 273 273 273 274 275 274 274 272 270 272 274 277 279 281 282
248 247 247 246 247 245 243 245 248 249 246 246 247 248 251 253 255 256 259 261 263 262 262 262 261 262 265 268 272 273 274 275 276 275 273 274 276 276 274 276 278 279 281 282
250 250 249 248 248 247 246 248 251 252 253 250 249 252 254 255 256 258 260 263 264 264 264 265 265 265 267 270 272 274 275 276 275 274 275 278 280 279 277 277 278 279 281 282
253 253 250 245 246 250 249 250 251 253 254 253 253 253 255 255 256 257 260 264 265 265 266 267 267 267 269 271 273 274 275 275 275 275 277 281 282 281 280 281 281 280 281 282
253 252 249 247 248 250 250 252 253 254 254 253 254 254 254 254 255 257 262 266 269 269 268 268 268 269 270 271 272 274 276 276 276 277 279 280 282 281 280 280 281 282 282 282
254 253 252 250 248 248 251 255 257 258 257 253 251 253 255 256 257 261 266 268 270 270 271 270 270 270 271 271 271 271 274 275 276 277 279 280 282 282 281 281 281 281 281 281
252 251 251 251 249 249 251 255 258 258 257 254 253 256 260 262 264 266 269 269 269 270 270 270 272 274 274 271 270 271 274 276 277 278 279 280 282 283 283 284 282 280 281 282
255 254 254 252 249 249 251 253 257 255 255 255 257 258 259 262 265 267 270 271 270 270 270 272 276 276 275 274 273 273 275 276 278 280 281 282 283 285 285 284 283 283 283 282
Height
5770 5773 5776 5779 5781 5783 5785 5788 5790 5793 5796 5799 5801 5803 5805 5807 5808 5810 5811 5812 5813 5813 5814 5814 5814 5813 5812 5812 5813 5812 5813 5813 5813 5813 5813 5812 5812 5811 5811 5811 5811 5811 5811 5811
5763 5766 5769 5772 5775 5777 5779 5781 5783 5786 5789 5792 5794 5796 5799 5801 5803 5804 5806 5807 5808 5808 5809 5809 5808 5808 5808 5808 5808 5808 5808 5808 5808 5809 5809 5808 5808 5808 5807 5807 5807 5807 5807 5807
5757 5760 5762 5765 5768 5770 5772 5774 5777 5779 5783 5785 5787 5789 5792 5795 5797 5798 5800 5801 5802 5803 5803 5804 5803 5803 5803 5804 5804 5804 5804 5804 5804 5804 5804 5804 5804 5804 5804 5803 5803 5803 5803 5803
5750 5754 5755 5761 5762 5763 5765 5768 5770 5773 5775 5778 5780 5783 5785 5788 5790 5793 5794 5795 5796 5796 5797 5797 5797 5798 5798 5798 5799 5799 5798 5799 5799 5799 5799 5799 5799 5800 5800 5799 5799 5799 5800 5800
5744 5746 5748 5752 5754 5756 5759 5762 5764 5766 5769 5771 5774 5776 5779 5782 5784 5786 5788 5789 5790 5791 5791 5792 5792 5792 5792 5793 5793 5794 5794 5794 5794 5795 5795 5795 5795 5795 5795 5795 5795 5795 5796 5796
5737 5739 5742 5747 5749 5750 5754 5755 5758 5760 5762 5765 5768 5771 5774 5776 5777 5779 5781 5782 5784 5785 5786 5786 5786 5786 5787 5787 5788 5788 5789 5789 5790 5790 5790 5791 5791 5791 5791 5790 5791 5791 5791 5791
5731 5733 5736 5740 5742 5745 5748 5750 5752 5754 5756 5759 5762 5765 5767 5769 5771 5773 5774 5776 5777 5779 5780 5780 5781 5781 5781 5782 5783 5783 5784 5784 5785 5785 5786 5786 5786 5786 5786 5786 5786 5787 5787 5787
5725 5727 5732 5734 5736 5739 5741 5743 5745 5748 5750 5752 5755 5758 5760 5763 5764 5766 5768 5770 5771 5773 5774 5774 5775 5775 5776 5777 5777 5778 5778 5779 5780 5780 5780 5780 5780 5781 5781 5781 5782 5782 5782 5781
5721 5724 5726 5727 5729 5732 5734 5737 5739 5742 5744 5746 5749 5751 5754 5756 5758 5759 5761 5763 5765 5766 5768 5769 5769 5770 5770 5771 5772 5772 5773 5773 5774 5774 5775 5775 5775 5775 5776 5776 5776 5777 5777 5776
5715 5718 5720 5721 5723 5725 5728 5730 5733 5736 5738 5740 5743 5745 5747 5749 5751 5753 5755 5757 5758 5759 5760 5762 5763 5764 5765 5765 5766 5767 5767 5767 5768 5768 5769 5769 5769 5769 5770 5770 5771 5771 5771 5771
5709 5712 5714 5716 5718 5720 5722 5725 5728 5730 5732 5734 5736 5739 5740 5742 5744 5746 5748 5750 5752 5753 5754 5755 5757 5758 5758 5759 5759 5760 5761 5761 5762 5762 5762 5762 5763 5763 5764 5764 5764 5765 5765 5764
5705 5707 5709 5711 5713 5715 5718 5720 5722 5724 5726 5728 5729 5732 5734 5735 5737 5739 5742 5744 5746 5747 5748 5749 5750 5751 5752 5752 5753 5754 5754 5754 5755 5755 5756 5756 5757 5757 5757 5758 5758 5758 5758 5758
5700 5702 5704 5706 5708 5710 5713 5715 5717 5719 5721 5722 5724 5726 5727 5729 5731 5733 5736 5738 5740 5741 5742 5743 5744 5745 5745 5745 5746 5746 5747 5747 5748 5748 5749 5750 5750 5750 5751 5751 5751 5751 5751 5750
5696 5698 5700 5702 5703 5705 5707 5710 5712 5714 5715 5717 5718 5719 5721 5723 5725 5728 5730 5732 5734 5735 5736 5737 5738 5739 5739 5739 5739 5739 5740 5740 5741 5742 5742 5742 5743 5743 5743 5743 5744 5744 5744 5743
5691 5693 5695 5697 5699 5700 5702 5704 5707 5708 5710 5712 5713 5714 5716 5717 5720 5722 5724 5726 5728 5729 5730 5731 5732 5732 5732 5732 5732 5732 5733 5733 5734 5734 5735 5735 5736 5736 5736 5736 5736 5736 5736 5735
5687 5688 5690 5692 5694 5696 5697 5699 5701 5703 5705 5707 5708 5710 5711 5713 5715 5717 5719 5720 5722 5723 5724 5725 5725 5726 5726 5726 5726 5726 5726 5727 5727 5727 5728 5728 5728 5729 5729 5729 5728 5728 5728 5727
5682 5684 5686 5687 5689 5690 5692 5694 5696 5698 5700 5701 5703 5705 5706 5708 5710 5712 5713 5715 5716 5717 5718 5718 5719 5720 5720 5720 5720 5720 5720 5720 5720 5720 5720 5721 5721 5721 5721 5721 5720 5720 5720 5719
5678 5680 5681 5683 5684 5686 5687 5689 5691 5693 5695 5696 5698 5699 5701 5703 5704 5706 5708 5709 5711 5711 5712 5712 5713 5713 5714 5714 5714 5713 5713 5713 5714 5713 5713 5713 5713 5713 5713 5713 5712 5712 5712 5711
5674 5676 5677 5679 5680 5682 5683 5684 5686 5688 5689 5691 5692 5694 5696 5698 5699 5700 5702 5703 5704 5705 5706 5706 5707 5707 5708 5708 5708 5707 5707 5707 5706 5706 5706 5706 5706 5705 5705 5705 5705 5704 5703 5702
5670 5672 5673 5675 5676 5677 5679 5680 5681 5682 5684 5685 5687 5689 5691 5692 5694 5695 5696 5697 5698 5699 5699 5700 5700 5701 5701 5701 5701 5701 5701 5700 5700 5699 5699 5698 5698 5698 5698 5697 5697 5696 5695 5694
5667 5668 5669 5671 5672 5673 5674 5675 5676 5677 5679 5680 5682 5684 5686 5687 5688 5689 5689 5691 5692 5692 5693 5693 5694 5694 5694 5694 5694 5694 5694 5694 5693 5693 5692 5692 5691 5691 5690 5690 5689 5688 5687 5686
5663 5664 5665 5667 5668 5669 5670 5671 5671 5672 5673 5675 5676 5678 5679 5681 5682 5682 5683 5684 5685 5685 5686 5686 5687 5687 5687 5688 5688 5688 5687 5687 5687 5686 5686 5685 5684 5684 5683 5682 5681 5680 5678 5677
5658 5659 5660 5662 5663 5664 5665 5666 5666 5667 5668 5670 5671 5672 5673 5674 5675 5677 5678 5678 5678 5679 5679 5679 5680 5680 5680 5681 5681 5681 5681 5680 5680 5679 5679 5678 5677 5676 5675 5674 5673 5671 5670 5669
5654 5655 5656 5657 5658 5659 5660 5661 5661 5662 5663 5664 5665 5667 5668 5668 5669 5670 5671 5671 5671 5672 5672 5672 5672 5673 5673 5673 5673 5673 5673 5673 5672 5672 5671 5670 5669 5668 5667 5665 5664 5663 5661 5660
5650 5650 5651 5652 5654 5655 5655 5656 5657 5658 5658 5659 5660 5661 5662 5662 5663 5664 5664 5664 5664 5665 5665 5665 5665 5665 5665 5665 5665 5665 5665 5665 5664 5664 5663 5662 5661 5660 5658 5657 5655 5654 5653 5651
5645 5646 5647 5648 5649 5650 5650 5651 5652 5652 5653 5654 5655 5655 5656 5657 5657 5657 5657 5657 5658 5658 5658 5658 5658 5657 5657 5657 5657 5657 5657 5657 5656 5655 5654 5654 5653 5651 5650 5648 5646 5645 5644 5642
5641 5642 5642 5643 5644 5644 5645 5646 5647 5648 5648 5649 5650 5650 5650 5651 5651 5651 5651 5651 5651 5651 5651 5651 5651 5650 5650 5649 5649 5649 5649 5649 5648 5647 5646 5645 5644 5642 5641 5639 5638 5636 5635 5633